| DS18B20 | SHTC3 | PZEM-004T | WiFi | ||||||||
|---|---|---|---|---|---|---|---|---|---|---|---|
| ID | Date d/m/Y & Time | data1 สูง | data2 ต่ำ | data3 นอก | temp pcb | hum pcb | Volt | Amp | Watt | rssi | Time |
| 7953 | 30/07/2026 11:32:17 | 30.6  | 29.2  | 31.3  | 31.6  | 62.9  | 234.4  | 0.04  | 4.6  | -80  | 11:32 |
| 7952 | 30/07/2026 11:27:32 | 30.6  | 29.2  | 31.3  | 31.5  | 62.9  | 234.5  | 0.04  | 4.6  | -77  | 11:27 |
| 7951 | 30/07/2026 11:22:49 | 30.6  | 29.2  | 31.2  | 31.4  | 62.9  | 232.8  | 0.04  | 4.6  | -81  | 11:22 |
| 7950 | 30/07/2026 11:18:06 | 30.6  | 29.1  | 30.9  | 31.4  | 62.9  | 235.0  | 0.04  | 4.6  | -79  | 11:18 |
| 7949 | 30/07/2026 11:13:22 | 30.5  | 29.1  | 30.9  | 31.4  | 63.0  | 234.8  | 0.04  | 4.6  | -80  | 11:13 |
| 7948 | 30/07/2026 11:08:38 | 30.5  | 29.1  | 30.9  | 31.5  | 63.0  | 233.3  | 0.04  | 4.6  | -79  | 11:08 |
| 7947 | 30/07/2026 11:03:55 | 30.4  | 29.0  | 30.9  | 31.4  | 63.0  | 235.3  | 0.04  | 4.6  | -79  | 11:03 |
| 7946 | 30/07/2026 10:59:12 | 30.4  | 28.9  | 30.7  | 31.1  | 62.9  | 233.2  | 0.04  | 4.6  | -78  | 10:59 |
| 7945 | 30/07/2026 10:54:28 | 30.4  | 28.9  | 30.7  | 31.1  | 62.9  | 235.5  | 0.04  | 4.6  | -79  | 10:54 |
| 7944 | 30/07/2026 10:49:44 | 30.2  | 28.9  | 30.7  | 31.1  | 63.0  | 235.5  | 0.04  | 4.6  | -79  | 10:49 |
| 7943 | 30/07/2026 10:45:01 | 30.2  | 28.8  | 30.7  | 31.1  | 63.1  | 234.0  | 0.04  | 4.6  | -78  | 10:45 |
| 7942 | 30/07/2026 10:40:17 | 30.1  | 28.8  | 30.7  | 31.1  | 63.1  | 233.0  | 0.04  | 4.6  | -77  | 10:40 |
| 7941 | 30/07/2026 10:35:34 | 30.1  | 28.7  | 30.7  | 31.0  | 63.3  | 234.8  | 0.04  | 4.4  | -78  | 10:35 |
| 7940 | 30/07/2026 10:30:51 | 30.0  | 28.6  | 30.7  | 30.7  | 63.2  | 235.8  | 0.04  | 4.4  | -77  | 10:30 |
| 7939 | 30/07/2026 10:26:08 | 29.9  | 28.6  | 30.6  | 30.8  | 63.3  | 236.1  | 0.04  | 4.4  | -76  | 10:26 |
| 7938 | 30/07/2026 10:21:24 | 29.9  | 28.5  | 30.5  | 30.8  | 63.4  | 233.1  | 0.04  | 4.4  | -78  | 10:21 |
| 7937 | 30/07/2026 10:16:40 | 29.8  | 28.5  | 30.4  | 30.7  | 63.3  | 234.8  | 0.04  | 4.4  | -79  | 10:16 |
| 7936 | 30/07/2026 10:11:57 | 29.8  | 28.4  | 30.2  | 30.7  | 63.4  | 234.4  | 0.04  | 4.4  | -78  | 10:11 |
| 7935 | 30/07/2026 10:07:14 | 29.7  | 28.4  | 30.2  | 30.5  | 63.5  | 231.9  | 0.04  | 4.4  | -79  | 10:07 |
| 7934 | 30/07/2026 10:02:31 | 29.6  | 28.3  | 30.4  | 30.6  | 63.7  | 234.3  | 0.04  | 4.4  | -79  | 10:02 |
| 7933 | 30/07/2026 09:57:48 | 29.5  | 28.2  | 30.2  | 30.5  | 63.8  | 234.2  | 0.03  | 4.4  | -79  | 09:57 |
| 7932 | 30/07/2026 09:53:05 | 29.4  | 28.1  | 30.4  | 30.4  | 63.9  | 233.8  | 0.03  | 4.4  | -76  | 09:53 |
| 7931 | 30/07/2026 09:48:22 | 29.4  | 28.1  | 30.6  | 30.1  | 63.9  | 230.1  | 0.04  | 4.4  | -78  | 09:48 |
| 7930 | 30/07/2026 09:43:37 | 29.2  | 28.0  | 30.1  | 30.1  | 64.2  | 231.3  | 0.04  | 4.4  | -77  | 09:43 |